Location: Casilda
(33.0440°S, 61.1680°W)
Time: 17:08:32
(UTC-03:00)

ISS - Pass Details

Date: 28 February 2021
Orbit: 417 x 422 km, 51.6° (Epoch: 27 February)

Event Time Altitude Azimuth Distance (km) Brightness Sun altitude
Rises 21:07:09 0° 208° (SSW) 2,403 0.9 -18.2°
Reaches altitude 10° 21:10:52 10° 167° (SSE) 1,530 -0.8 -18.9°
Maximum altitude 21:11:41 11° 153° (SSE) 1,490 -1.0 -19.1°
Enters shadow 21:11:53 11° 149° (SSE) 1,492 -1.1 -19.1°
